Regional Weather Roundup
Issued by NWS

Home | Current Version | Previous Version | Text Only | Print | Product List | Glossary On
Versions: 1 2 3 4 5 6 7 8 9 10 11 12 13 14 15 16 17 18 19 20 21 22 23 24 25 26 27 28 29 30 31 32 33 34 35 36 37 38 39 40 41 42 43 44 45 46 47 48 49 50
000
ASUS43 KTOP 290908
RWRKS

WEATHER ROUNDUP FOR KANSAS
NATIONAL WEATHER SERVICE GOODLAND KS
400 AM CDT FRI APR 29 2016

NOTE:  "FAIR" INDICATES FEW OR NO CLOUDS BELOW 12,000 FEET WITH NO
SIGNIFICANT WEATHER AND/OR OBSTRUCTIONS TO VISIBILITY.

KSZ001>006-013>018-027>032-041>047-291000-
NORTHWEST KANSAS

CITY           SKY/WX    TMP DP  RH WIND       PRES   REMARKS
GOODLAND       RAIN      40  38  93 E12       30.05F FOG     WCI  33
HAYS           CLOUDY    46  37  71 NE13      30.04F
HILL CITY      CLOUDY    47  43  86 NE8       30.08F
RUSSELL        LGT RAIN  47  44  90 NE15      30.04R
$$

KSZ061>065-074>080-084>089-291000-
SOUTHWEST KANSAS

CITY           SKY/WX    TMP DP  RH WIND       PRES   REMARKS
DODGE CITY     HVY RAIN  44  42  93 N23G32    29.97R FOG
ELKHART          N/A     43  40  89 NE18        N/A
GARDEN CITY    LGT RAIN  44  42  93 NE26G35   29.95F
GREAT BEND     CLOUDY    48  39  71 NE18      29.97F
LIBERAL        CLOUDY    48  43  81 NE18G24   29.90F
PRATT          CLOUDY    46  46  98 NE16G24   29.91F
$$

KSZ066>073-081>083-090>101-291000-
SOUTHEAST KANSAS

CITY           SKY/WX    TMP DP  RH WIND       PRES   REMARKS
CHANUTE        MOCLDY    52  45  77 NE13      29.99F
COFFEYVILLE    CLOUDY    54  47  77 NE17      29.95F
HUTCHINSON     CLOUDY    50  47  89 NE12G20   29.97F
MEDICINE LODGE   N/A     52  48  86 NE14      29.86F
NEWTON         MOCLDY    48  41  76 NE12G17   29.99F
PARSONS        CLOUDY    53  47  79 NE10      29.98F
WICHITA INTL   CLOUDY    53  46  77 E14       29.95F
WICHITA JABRA  CLOUDY    51  46  83 E12       29.96F
WICHITA MCCONL PTCLDY    52  46  78 NE15      29.95F
WINFIELD       CLEAR     53  46  77 NE16G25   29.94F
$$

KSZ007>012-019>026-033>040-048>060-102>105-291000-
NORTHEAST KANSAS

CITY           SKY/WX    TMP DP  RH WIND       PRES   REMARKS
CONCORDIA      CLOUDY    47  39  74 N14       30.06F
EMPORIA        CLOUDY    50  45  83 NE14      30.01F
LAWRENCE       CLOUDY    49  45  86 NE8       30.06F
MANHATTAN      CLOUDY    50  43  77 NE9       30.06S
MARYSVILLE     CLOUDY    46  41  81 NE10      30.08F
OLATHE IND     CLOUDY    49  45  86 N7        30.07F
OLATHE EXE     CLOUDY    49  44  83 NE9       30.06F
SALINA         CLOUDY    50  45  83 N15       30.01F
TOPEKA BILLARD CLOUDY    49  45  86 N9        30.03F
TOPEKA FORBES  CLOUDY    50  45  83 NE7       30.04S
$$




USA.gov is the U.S. government's official web portal to all federal, state and local government web resources and services.